STARLINK-1407, 45703

Orbit data source: Space-Track

STARLINK-1407, 45703 is a payload satellite owned by SpaceX/Seattle (US) in LEO that was launched on Thu, 04 Jun 2020 UTC via an FALCON 9 launch vehicle from the Air Force Eastern Test Range (AFETR). Payload-class satellites include a variety of spacecraft equipped with specific instruments for various scientific and technological missions. These include communications satellites like Starlink; space stations such as the ISS; scientific satellites like the Hubble; Earth observation satellites from companies like Planet Labs, Umbra, and HawkEye 360; GPS; miniature CubeSats for education and research; and military/defense satellites.

Loading next visibility...
Identifier
45703, 2020-035AY
Orbit
LEO
Country
Flag of USUS
Related business
Manufacturer
SpaceX/Seattle
Mission
Partially operational Commercial Communications
Bus & Motor
STARLINK, Unknown motor
Mass
260 kg wet, ~248 kg dry
Launch date (UTC)
2020-06-04 (5 years ago)
Launch vehicle
FALCON 9
Launch site
Air Force Eastern Test Range (AFETR)
Object type
Payload
Rocket body
Debris
Shape & HBR
Box + 1 Pan, 10.1 m
Radar Cross Section
13.562 m², Large (>1 m²)

Expand to show TLE details & history
Last TLE update: 18 hours ago

TLE from 18 hours ago
0 STARLINK-1407
1 45703U 20035AY  25287.28454678  .00093846  00000-0  24791-2 0  9992
2 45703  53.0418 296.5153 0010757 340.0232  20.0348 15.37628997297616
Epoch: 2025-10-14T06:49Z
TLE epoch observation values (Epoch: 2025-10-14T06:49:44.841Z)
Latitude
-0.00003°
Longitude
171.00326°
Altitude
447.11 km
Speed
7.649 km/s
True Right ascension
19h 46m 03s
True Declination
0° 00' 00"
Sunlit
Object was in daylight at epoch
Visualization orbit readout
Latitude
Unknown
Longitude
Unknown
Altitude
Unknown
Speed
Unknown
Apparent Right ascension
Unknown
Apparent Declination
Unknown
Sunlit
N/A
Visualization observer readout
Local Sidereal Time
19:08:12
Azimuth
Unknown
Elevation
Unknown
Doppler factor
Unknown
Orbital elements
Apogee altitude
460.748 km
Perigee altitude
446.05 km
Semi-major axis
6,831.536 km
Eccentricity
0.00108
Inclination
53.0418°
RAAN
296.5153°
Arg. of periapsis
340.0232°
True anomaly
20.07708°
Mean anomaly
20.0348°
Eccentric anomaly
20.05594°
Mean motion
3.84384 °/min
Orbital period
93.66 mins
BSTAR
0.0024791
Loading maneuver chart data...
Computing Atmospheric mass density...
Loading historical data...
Loading historical data...
Loading historical data...
Loading historical data...
Loading historical data...
Loading historical data...
Loading historical data...

Documentation

Showing up to 5 results
|